User: anonymous   Login
Location: Unspecified
(0.0000°N, 0.0000°E)
Time: 18:55:38
(UTC+00:00)
Language:

LAPAN A2 - Orbit

View from above orbital plane
View from above orbital plane
View from above satellite
View from above satellite

Ground track
Ground track

The orbit data is extracted from the following two-line orbital elements,

1 40931U 15052B   19341.11074618  .00000509  00000-0 -18212-4 0  9999
2 40931   5.9982 274.1399 0012309  57.0348 303.0986 14.76621491226638
Epoch (UTC): 07 December 2019 02:39:28
Eccentricity: 0.0012309
inclination: 5.9982°
perigee height: 631 km
apogee height: 648 km
right ascension of ascending node: 274.1399°
argument of perigee: 57.0348°
revolutions per day: 14.76621491
mean anomaly at epoch: 303.0986°
orbit number at epoch: 22663

The dashed part of the orbit path shows where the satellite is in the earth's shadow,  

DLR